TimeEDT,TemperatureF,Dew PointF,Humidity,Sea Level PressureIn,VisibilityMPH,Wind Direction,Wind SpeedMPH,Gust SpeedMPH,PrecipitationIn,Events,Conditions,WindDirDegrees,DateUTC
12:56 AM,63.0,61.0,93,30.11,-9999.0,NNE,5.8,-,N/A,,Clear,30,2013-05-01 04:56:00
1:56 AM,64.9,60.1,84,30.09,-9999.0,ENE,8.1,-,0.01,,Clear,60,2013-05-01 05:56:00
2:56 AM,64.9,60.1,84,30.09,-9999.0,ENE,6.9,-,N/A,,Clear,70,2013-05-01 06:56:00
3:56 AM,64.0,60.1,87,30.07,-9999.0,ENE,9.2,-,N/A,,Scattered Clouds,60,2013-05-01 07:56:00
4:05 AM,64.4,60.8,88,30.07,-9999.0,ENE,9.2,-,N/A,,Mostly Cloudy,70,2013-05-01 08:05:00
4:35 AM,62.6,60.8,94,30.07,-9999.0,ENE,8.1,-,N/A,,Mostly Cloudy,60,2013-05-01 08:35:00
4:45 AM,62.6,60.8,94,30.07,-9999.0,ENE,9.2,-,N/A,,Partly Cloudy,60,2013-05-01 08:45:00
4:56 AM,63.0,59.0,87,30.07,-9999.0,ENE,8.1,-,N/A,,Partly Cloudy,60,2013-05-01 08:56:00
5:56 AM,62.1,59.0,90,30.06,-9999.0,ENE,11.5,-,N/A,,Clear,60,2013-05-01 09:56:00
6:32 AM,60.8,57.2,88,30.08,-9999.0,NE,8.1,-,N/A,,Partly Cloudy,50,2013-05-01 10:32:00
6:49 AM,60.8,57.2,88,30.09,10.0,NE,10.4,-,N/A,,Mostly Cloudy,40,2013-05-01 10:49:00
6:56 AM,61.0,57.9,90,30.09,10.0,NE,10.4,-,N/A,,Mostly Cloudy,50,2013-05-01 10:56:00
7:56 AM,62.1,57.9,86,30.12,10.0,NE,9.2,-,N/A,,Overcast,50,2013-05-01 11:56:00
8:56 AM,62.1,57.9,86,30.15,4.0,ENE,11.5,-,N/A,,Haze,70,2013-05-01 12:56:00
9:49 AM,64.4,59.0,83,30.17,5.0,ENE,6.9,-,N/A,,Haze,70,2013-05-01 13:49:00
9:56 AM,64.0,57.9,80,30.17,5.0,ENE,10.4,-,N/A,,Haze,60,2013-05-01 13:56:00
10:56 AM,64.9,57.9,78,30.17,5.0,ENE,10.4,-,N/A,,Haze,60,2013-05-01 14:56:00
11:56 AM,64.9,57.0,75,30.16,10.0,NNE,17.3,-,N/A,,Overcast,30,2013-05-01 15:56:00
12:05 PM,64.4,57.2,77,30.16,10.0,NNE,13.8,21.9,N/A,,Overcast,30,2013-05-01 16:05:00
12:56 PM,66.0,55.9,70,30.18,10.0,NE,11.5,-,N/A,,Overcast,50,2013-05-01 16:56:00
1:56 PM,66.9,55.9,68,30.18,-9999.0,NNE,10.4,-,N/A,,Overcast,30,2013-05-01 17:56:00
2:56 PM,70.0,57.0,63,30.16,-9999.0,NE,11.5,-,N/A,,Mostly Cloudy,40,2013-05-01 18:56:00
3:56 PM,71.1,57.0,61,30.13,-9999.0,NE,11.5,-,N/A,,Mostly Cloudy,50,2013-05-01 19:56:00
4:56 PM,71.1,57.0,61,30.12,-9999.0,NE,12.7,-,N/A,,Mostly Cloudy,40,2013-05-01 20:56:00
5:56 PM,71.1,55.9,59,30.13,-9999.0,NE,11.5,-,N/A,,Mostly Cloudy,40,2013-05-01 21:56:00
6:56 PM,69.1,57.0,65,30.12,10.0,NE,6.9,-,N/A,,Mostly Cloudy,50,2013-05-01 22:56:00
7:56 PM,68.0,57.9,70,30.12,10.0,NE,9.2,-,N/A,,Overcast,50,2013-05-01 23:56:00
8:56 PM,68.0,59.0,73,30.14,10.0,NE,6.9,-,N/A,,Overcast,50,2013-05-02 00:56:00
9:36 PM,68.0,59.0,73,30.14,-9999.0,ENE,8.1,-,N/A,,Overcast,70,2013-05-02 01:36:00
9:56 PM,66.9,59.0,76,30.15,10.0,East,9.2,16.1,N/A,,Overcast,80,2013-05-02 01:56:00
10:36 PM,64.4,60.8,88,30.15,-9999.0,NE,8.1,-,N/A,,Overcast,50,2013-05-02 02:36:00
10:56 PM,64.9,61.0,87,30.15,10.0,NE,6.9,-,N/A,,Overcast,50,2013-05-02 02:56:00
11:28 PM,64.4,60.8,88,30.14,-9999.0,NE,10.4,18.4,N/A,,Overcast,50,2013-05-02 03:28:00
11:56 PM,66.0,61.0,84,30.14,-9999.0,ENE,8.1,-,N/A,,Overcast,60,2013-05-02 03:56:00